Precipitable_Water
1.49 1.49 1.49 1.49 1.43 1.37 1.33 1.29 1.27 1.25 1.21 1.19 1.15 1.11 1.09 1.07 1.03 1.01 0.99 0.97 0.91 0.84 0.78 0.76 0.74 0.72 0.72 0.72 0.68 0.66 0.64 0.62 0.60 0.60 0.60 0.58 0.58 0.58 0.60 0.60 0.60 0.62 0.62 0.62 0.62 0.62 0.62 0.62 0.62 0.60 0.60 0.60 0.60 0.62 0.64 0.66 0.68 0.68 0.70 0.70 0.72 0.74 0.74 0.72 0.74 0.74 0.74 0.76 0.78
1.49 1.49 1.49 1.47 1.43 1.37 1.33 1.29 1.27 1.25 1.21 1.17 1.13 1.11 1.09 1.07 1.05 1.01 0.99 0.95 0.90 0.84 0.80 0.74 0.74 0.72 0.72 0.72 0.68 0.66 0.64 0.62 0.62 0.60 0.60 0.60 0.60 0.60 0.62 0.62 0.62 0.62 0.62 0.62 0.62 0.62 0.62 0.62 0.62 0.60 0.60 0.62 0.64 0.64 0.66 0.70 0.72 0.72 0.72 0.72 0.74 0.76 0.76 0.76 0.76 0.76 0.78 0.78 0.80
1.49 1.51 1.49 1.45 1.41 1.35 1.31 1.29 1.27 1.23 1.19 1.15 1.13 1.11 1.09 1.07 1.03 0.99 0.95 0.91 0.88 0.84 0.80 0.74 0.74 0.72 0.72 0.70 0.70 0.68 0.66 0.64 0.62 0.62 0.60 0.60 0.62 0.62 0.62 0.62 0.64 0.64 0.64 0.64 0.64 0.64 0.64 0.62 0.64 0.64 0.64 0.66 0.68 0.68 0.70 0.74 0.74 0.74 0.74 0.74 0.76 0.78 0.78 0.78 0.80 0.80 0.82 0.82 0.84
1.49 1.49 1.47 1.41 1.37 1.33 1.31 1.27 1.25 1.21 1.17 1.13 1.11 1.11 1.09 1.09 1.03 0.97 0.91 0.88 0.84 0.82 0.78 0.74 0.74 0.72 0.72 0.70 0.70 0.68 0.66 0.64 0.64 0.62 0.62 0.60 0.62 0.62 0.64 0.64 0.64 0.64 0.64 0.64 0.64 0.64 0.64 0.66 0.66 0.68 0.70 0.70 0.70 0.72 0.72 0.74 0.76 0.76 0.76 0.80 0.80 0.80 0.82 0.82 0.82 0.84 0.84 0.84 0.88
1.49 1.47 1.43 1.39 1.37 1.33 1.31 1.29 1.27 1.21 1.15 1.13 1.11 1.09 1.09 1.07 0.99 0.93 0.90 0.84 0.82 0.80 0.78 0.74 0.74 0.74 0.72 0.72 0.70 0.68 0.66 0.64 0.64 0.64 0.62 0.62 0.64 0.64 0.64 0.64 0.64 0.64 0.64 0.64 0.64 0.64 0.66 0.70 0.70 0.72 0.74 0.74 0.74 0.76 0.76 0.78 0.78 0.78 0.80 0.82 0.82 0.84 0.84 0.84 0.86 0.86 0.88 0.88 0.88
1.45 1.43 1.41 1.39 1.37 1.35 1.33 1.31 1.27 1.19 1.13 1.11 1.09 1.09 1.07 1.05 0.95 0.88 0.84 0.80 0.78 0.78 0.78 0.76 0.76 0.74 0.74 0.72 0.70 0.68 0.66 0.66 0.64 0.64 0.64 0.64 0.64 0.64 0.64 0.64 0.64 0.64 0.66 0.66 0.66 0.68 0.72 0.72 0.74 0.74 0.76 0.78 0.78 0.78 0.80 0.80 0.80 0.80 0.80 0.82 0.84 0.84 0.86 0.86 0.88 0.88 0.88 0.88 0.90
1.43 1.41 1.39 1.39 1.37 1.35 1.33 1.31 1.25 1.19 1.13 1.11 1.09 1.05 1.03 0.99 0.90 0.84 0.82 0.80 0.78 0.78 0.78 0.76 0.74 0.74 0.72 0.70 0.70 0.68 0.68 0.66 0.66 0.66 0.66 0.64 0.64 0.64 0.64 0.64 0.66 0.66 0.66 0.66 0.68 0.72 0.74 0.76 0.76 0.76 0.78 0.80 0.80 0.80 0.82 0.82 0.82 0.82 0.82 0.82 0.84 0.86 0.86 0.86 0.88 0.88 0.90 0.88 0.90
1.41 1.39 1.39 1.37 1.37 1.35 1.31 1.27 1.21 1.17 1.11 1.09 1.07 1.03 0.97 0.93 0.86 0.82 0.80 0.80 0.78 0.78 0.78 0.78 0.76 0.74 0.72 0.70 0.70 0.68 0.68 0.66 0.66 0.66 0.66 0.66 0.66 0.66 0.66 0.66 0.66 0.68 0.68 0.70 0.72 0.74 0.78 0.78 0.78 0.78 0.78 0.80 0.80 0.80 0.82 0.82 0.82 0.82 0.82 0.82 0.84 0.86 0.88 0.88 0.90 0.90 0.90 0.90 0.90
1.39 1.39 1.39 1.37 1.35 1.31 1.27 1.21 1.17 1.13 1.09 1.07 1.03 0.99 0.93 0.91 0.86 0.82 0.80 0.80 0.80 0.80 0.80 0.78 0.76 0.76 0.74 0.72 0.70 0.70 0.70 0.68 0.68 0.68 0.68 0.68 0.68 0.68 0.68 0.70 0.70 0.70 0.72 0.74 0.76 0.78 0.80 0.80 0.80 0.80 0.80 0.80 0.80 0.82 0.82 0.82 0.82 0.82 0.82 0.82 0.86 0.88 0.88 0.90 0.90 0.90 0.91 0.91 0.90
1.37 1.37 1.37 1.31 1.27 1.23 1.19 1.17 1.15 1.11 1.07 1.03 0.99 0.95 0.93 0.90 0.86 0.84 0.84 0.84 0.84 0.82 0.82 0.80 0.78 0.76 0.74 0.74 0.72 0.72 0.72 0.70 0.70 0.70 0.70 0.70 0.72 0.70 0.72 0.72 0.72 0.74 0.74 0.76 0.80 0.82 0.82 0.80 0.80 0.80 0.82 0.82 0.82 0.82 0.82 0.84 0.84 0.84 0.84 0.84 0.86 0.86 0.88 0.90 0.91 0.91 0.91 0.91 0.91
1.37 1.35 1.31 1.25 1.23 1.19 1.17 1.15 1.13 1.07 1.01 0.97 0.95 0.93 0.91 0.90 0.88 0.88 0.88 0.88 0.84 0.84 0.82 0.82 0.80 0.78 0.76 0.76 0.74 0.74 0.74 0.74 0.74 0.74 0.74 0.74 0.74 0.74 0.74 0.76 0.76 0.76 0.78 0.82 0.82 0.84 0.82 0.82 0.82 0.82 0.82 0.82 0.82 0.82 0.84 0.84 0.84 0.84 0.84 0.86 0.86 0.88 0.88 0.90 0.91 0.91 0.91 0.91 0.91
1.35 1.31 1.25 1.21 1.21 1.19 1.15 1.13 1.09 1.03 0.99 0.97 0.95 0.93 0.91 0.91 0.91 0.90 0.90 0.88 0.86 0.86 0.86 0.86 0.82 0.80 0.80 0.78 0.78 0.78 0.76 0.76 0.76 0.76 0.76 0.76 0.78 0.78 0.78 0.78 0.80 0.80 0.82 0.84 0.86 0.84 0.84 0.82 0.82 0.82 0.82 0.82 0.84 0.84 0.84 0.86 0.86 0.86 0.86 0.86 0.88 0.88 0.88 0.90 0.91 0.93 0.93 0.93 0.91
1.31 1.27 1.21 1.21 1.19 1.15 1.13 1.09 1.05 1.01 0.99 0.97 0.95 0.95 0.93 0.93 0.93 0.93 0.91 0.90 0.88 0.88 0.88 0.88 0.86 0.84 0.82 0.82 0.80 0.80 0.80 0.80 0.78 0.78 0.78 0.80 0.80 0.80 0.82 0.82 0.82 0.84 0.86 0.86 0.86 0.86 0.86 0.84 0.84 0.82 0.82 0.84 0.84 0.84 0.86 0.88 0.88 0.86 0.88 0.88 0.88 0.88 0.90 0.90 0.91 0.93 0.93 0.91 0.91
1.27 1.23 1.19 1.19 1.15 1.13 1.09 1.05 1.05 1.01 0.99 0.97 0.97 0.97 0.97 0.95 0.95 0.95 0.93 0.91 0.91 0.90 0.90 0.90 0.88 0.86 0.84 0.84 0.82 0.82 0.82 0.82 0.82 0.82 0.82 0.82 0.82 0.82 0.84 0.84 0.84 0.86 0.86 0.88 0.88 0.88 0.86 0.86 0.86 0.84 0.84 0.84 0.84 0.86 0.88 0.90 0.90 0.90 0.90 0.88 0.88 0.90 0.90 0.90 0.91 0.91 0.93 0.93 0.93
1.25 1.21 1.19 1.15 1.13 1.11 1.07 1.05 1.03 1.01 0.99 0.99 0.99 0.99 0.99 0.99 0.97 0.97 0.95 0.93 0.91 0.91 0.91 0.90 0.88 0.88 0.86 0.86 0.86 0.84 0.84 0.84 0.84 0.84 0.84 0.84 0.84 0.84 0.84 0.86 0.86 0.86 0.88 0.88 0.88 0.88 0.88 0.86 0.86 0.86 0.86 0.86 0.86 0.88 0.90 0.91 0.91 0.91 0.90 0.90 0.90 0.90 0.90 0.91 0.91 0.95 0.97 0.97 0.97
1.23 1.19 1.17 1.13 1.11 1.09 1.07 1.05 1.05 1.03 1.01 1.01 1.01 1.01 1.01 0.99 0.99 0.97 0.95 0.93 0.93 0.91 0.91 0.90 0.88 0.88 0.88 0.88 0.88 0.86 0.86 0.86 0.84 0.84 0.84 0.84 0.86 0.86 0.86 0.86 0.86 0.88 0.88 0.88 0.88 0.88 0.88 0.88 0.88 0.88 0.88 0.88 0.90 0.90 0.91 0.91 0.91 0.91 0.91 0.91 0.91 0.91 0.93 0.93 0.97 0.99 1.01 1.01 1.01
1.19 1.17 1.15 1.11 1.11 1.09 1.07 1.07 1.05 1.05 1.03 1.03 1.03 1.01 1.01 0.99 0.99 0.95 0.93 0.93 0.91 0.91 0.90 0.90 0.90 0.88 0.88 0.88 0.88 0.88 0.86 0.86 0.86 0.86 0.86 0.86 0.86 0.86 0.88 0.88 0.88 0.88 0.90 0.88 0.88 0.90 0.90 0.90 0.91 0.91 0.91 0.90 0.90 0.91 0.91 0.93 0.93 0.93 0.93 0.95 0.95 0.97 0.99 0.99 1.03 1.05 1.05 1.05 1.05
1.15 1.13 1.13 1.11 1.09 1.09 1.09 1.07 1.07 1.05 1.03 1.03 1.01 1.01 0.99 0.99 0.97 0.95 0.93 0.91 0.91 0.90 0.88 0.88 0.90 0.90 0.90 0.88 0.88 0.88 0.88 0.86 0.86 0.86 0.86 0.88 0.88 0.88 0.90 0.90 0.90 0.91 0.91 0.90 0.90 0.90 0.90 0.91 0.91 0.91 0.91 0.91 0.91 0.93 0.95 0.95 0.95 0.97 0.99 0.99 1.01 1.03 1.05 1.05 1.07 1.07 1.07 1.07 1.07
1.13 1.11 1.09 1.09 1.09 1.09 1.07 1.07 1.07 1.05 1.03 1.03 1.01 0.99 0.99 0.97 0.95 0.93 0.91 0.91 0.91 0.90 0.90 0.90 0.90 0.90 0.90 0.88 0.90 0.90 0.88 0.88 0.88 0.88 0.90 0.90 0.90 0.91 0.91 0.91 0.91 0.91 0.91 0.91 0.91 0.91 0.91 0.91 0.91 0.91 0.91 0.91 0.95 0.97 0.99 1.01 1.03 1.03 1.05 1.05 1.07 1.07 1.07 1.07 1.09 1.09 1.11 1.11 1.09
1.09 1.07 1.07 1.07 1.07 1.07 1.07 1.07 1.05 1.05 1.03 1.03 1.01 0.99 0.97 0.95 0.95 0.93 0.91 0.91 0.91 0.91 0.90 0.90 0.90 0.90 0.90 0.90 0.90 0.90 0.90 0.90 0.90 0.90 0.90 0.91 0.91 0.91 0.93 0.93 0.93 0.93 0.93 0.93 0.91 0.91 0.91 0.91 0.93 0.93 0.93 0.95 0.99 1.03 1.03 1.07 1.07 1.07 1.07 1.07 1.07 1.07 1.09 1.09 1.09 1.11 1.11 1.11 1.09
1.07 1.07 1.07 1.07 1.07 1.07 1.05 1.05 1.05 1.05 1.03 1.01 0.99 0.97 0.97 0.95 0.95 0.93 0.91 0.91 0.91 0.91 0.90 0.90 0.90 0.90 0.90 0.90 0.90 0.90 0.90 0.90 0.90 0.90 0.91 0.91 0.91 0.93 0.93 0.93 0.93 0.91 0.91 0.91 0.91 0.91 0.93 0.95 0.95 0.97 0.99 1.03 1.05 1.07 1.07 1.07 1.07 1.07 1.07 1.07 1.07 1.07 1.07 1.09 1.09 1.09 1.07 1.05 1.03
1.09 1.09 1.09 1.09 1.07 1.07 1.05 1.05 1.05 1.03 1.01 1.01 0.99 0.99 0.97 0.97 0.95 0.93 0.93 0.93 0.91 0.91 0.90 0.90 0.90 0.90 0.90 0.90 0.90 0.90 0.91 0.91 0.91 0.91 0.93 0.93 0.93 0.93 0.93 0.93 0.91 0.91 0.91 0.91 0.93 0.95 0.97 0.99 1.01 1.03 1.05 1.07 1.07 1.05 1.05 1.05 1.05 1.05 1.05 1.05 1.05 1.07 1.07 1.07 1.07 1.05 1.05 1.03 1.01
1.09 1.09 1.09 1.07 1.07 1.05 1.05 1.05 1.03 1.03 1.01 1.01 1.01 0.99 0.99 0.97 0.95 0.95 0.93 0.93 0.91 0.91 0.90 0.90 0.90 0.90 0.90 0.90 0.90 0.91 0.91 0.91 0.91 0.91 0.93 0.93 0.91 0.91 0.91 0.93 0.93 0.93 0.95 0.95 0.97 0.99 1.01 1.03 1.05 1.05 1.05 1.05 1.05 1.03 1.03 1.03 1.03 1.03 1.03 1.03 1.05 1.03 1.01 1.01 1.01 1.01 0.99 0.99 0.97
1.09 1.09 1.07 1.07 1.05 1.05 1.05 1.03 1.03 1.01 1.01 0.99 0.99 0.99 0.99 0.97 0.97 0.95 0.93 0.91 0.91 0.91 0.91 0.91 0.91 0.91 0.91 0.91 0.91 0.91 0.91 0.90 0.90 0.90 0.90 0.91 0.91 0.93 0.93 0.97 0.97 0.99 1.01 1.03 1.03 1.05 1.05 1.05 1.05 1.05 1.03 1.03 1.03 1.03 1.03 1.03 1.01 1.01 1.01 1.01 1.01 0.97 0.95 0.95 0.95 0.95 0.95 0.95 0.93
1.07 1.07 1.07 1.05 1.05 1.05 1.03 1.03 1.01 0.99 0.99 0.99 0.99 0.99 0.97 0.97 0.95 0.95 0.93 0.91 0.91 0.91 0.91 0.91 0.91 0.91 0.91 0.91 0.91 0.91 0.90 0.90 0.90 0.90 0.90 0.91 0.93 0.95 0.97 0.99 1.01 1.03 1.05 1.05 1.07 1.07 1.07 1.07 1.05 1.03 1.01 1.01 1.01 1.01 1.01 1.01 1.01 0.99 0.99 0.97 0.97 0.93 0.91 0.91 0.91 0.91 0.91 0.91 0.90
1.07 1.05 1.05 1.05 1.03 1.03 1.03 1.01 0.99 0.99 0.99 0.97 0.97 0.97 0.95 0.95 0.93 0.93 0.91 0.90 0.90 0.90 0.90 0.90 0.90 0.90 0.90 0.90 0.90 0.90 0.90 0.91 0.93 0.93 0.95 0.95 0.97 0.99 1.01 1.01 1.03 1.05 1.05 1.05 1.05 1.05 1.05 1.05 1.03 1.03 1.01 1.01 0.99 0.99 0.99 0.99 0.97 0.97 0.97 0.95 0.91 0.90 0.88 0.86 0.86 0.86 0.86 0.86 0.86
1.03 1.03 1.03 1.03 1.01 1.01 0.99 0.99 0.97 0.97 0.95 0.95 0.93 0.93 0.91 0.91 0.91 0.90 0.88 0.86 0.86 0.86 0.86 0.86 0.86 0.86 0.88 0.90 0.90 0.90 0.91 0.95 0.97 0.97 0.99 0.99 0.99 0.99 1.01 1.01 1.01 1.03 1.03 1.03 1.03 1.03 1.03 1.03 1.01 1.01 1.01 1.01 0.99 0.97 0.95 0.95 0.93 0.93 0.93 0.91 0.88 0.86 0.84 0.82 0.80 0.80 0.80 0.82 0.82
0.99 0.99 0.99 0.99 0.97 0.97 0.97 0.97 0.95 0.93 0.93 0.91 0.91 0.90 0.90 0.90 0.88 0.86 0.86 0.84 0.84 0.84 0.84 0.84 0.86 0.88 0.90 0.91 0.91 0.93 0.95 0.97 0.99 0.99 0.99 0.99 0.99 0.99 0.99 0.99 0.99 1.01 1.01 1.01 1.01 1.01 1.01 1.01 0.99 0.99 0.99 0.97 0.97 0.95 0.91 0.91 0.90 0.90 0.90 0.88 0.82 0.80 0.80 0.80 0.78 0.78 0.78 0.78 0.80
0.97 0.97 0.95 0.95 0.93 0.93 0.93 0.93 0.91 0.91 0.90 0.90 0.90 0.90 0.88 0.88 0.86 0.86 0.84 0.84 0.84 0.84 0.84 0.86 0.90 0.91 0.91 0.93 0.93 0.95 0.97 0.97 0.97 0.97 0.97 0.97 0.97 0.97 0.97 0.97 0.97 0.99 0.99 0.99 0.99 0.99 0.99 0.97 0.95 0.95 0.95 0.93 0.93 0.91 0.90 0.88 0.86 0.84 0.84 0.82 0.80 0.80 0.78 0.78 0.78 0.78 0.76 0.76 0.76
0.99 0.97 0.93 0.93 0.93 0.91 0.91 0.91 0.91 0.90 0.90 0.90 0.90 0.90 0.88 0.88 0.88 0.86 0.86 0.86 0.86 0.90 0.93 0.93 0.93 0.93 0.93 0.93 0.95 0.95 0.95 0.95 0.95 0.95 0.93 0.93 0.91 0.91 0.93 0.93 0.93 0.95 0.95 0.97 0.97 0.95 0.93 0.93 0.91 0.91 0.91 0.90 0.90 0.88 0.88 0.86 0.84 0.82 0.80 0.78 0.78 0.76 0.76 0.74 0.74 0.72 0.72 0.72 0.70
1.01 0.99 0.99 0.97 0.95 0.93 0.93 0.93 0.93 0.93 0.93 0.91 0.91 0.91 0.90 0.90 0.90 0.90 0.90 0.93 0.95 0.97 0.97 0.95 0.95 0.93 0.93 0.93 0.93 0.93 0.91 0.91 0.91 0.90 0.90 0.88 0.88 0.88 0.88 0.90 0.90 0.91 0.91 0.93 0.93 0.91 0.91 0.90 0.90 0.90 0.90 0.88 0.88 0.86 0.86 0.84 0.82 0.80 0.78 0.74 0.72 0.72 0.70 0.70 0.68 0.68 0.68 0.66 0.66
0.99 0.99 0.97 0.97 0.97 0.97 0.97 0.97 0.97 0.95 0.95 0.95 0.93 0.93 0.93 0.93 0.95 0.95 0.97 0.97 0.97 0.95 0.95 0.93 0.93 0.91 0.91 0.91 0.90 0.90 0.90 0.88 0.88 0.88 0.88 0.86 0.86 0.86 0.88 0.88 0.88 0.90 0.90 0.91 0.90 0.90 0.90 0.88 0.88 0.88 0.88 0.86 0.86 0.84 0.82 0.80 0.80 0.78 0.76 0.72 0.70 0.68 0.66 0.66 0.66 0.64 0.64 0.64 0.60
0.95 0.93 0.93 0.91 0.93 0.93 0.93 0.95 0.95 0.95 0.95 0.93 0.93 0.93 0.93 0.93 0.95 0.95 0.95 0.95 0.95 0.95 0.93 0.91 0.90 0.90 0.90 0.88 0.88 0.88 0.86 0.86 0.86 0.86 0.86 0.86 0.86 0.86 0.86 0.86 0.88 0.88 0.90 0.90 0.90 0.88 0.88 0.86 0.86 0.86 0.84 0.84 0.82 0.80 0.80 0.78 0.76 0.72 0.68 0.68 0.66 0.64 0.64 0.62 0.62 0.60 0.60 0.60 0.58
0.90 0.90 0.90 0.88 0.90 0.90 0.90 0.91 0.91 0.91 0.91 0.91 0.91 0.91 0.93 0.93 0.93 0.93 0.93 0.93 0.95 0.93 0.91 0.91 0.91 0.90 0.90 0.90 0.88 0.86 0.86 0.86 0.86 0.86 0.86 0.86 0.86 0.84 0.84 0.84 0.86 0.88 0.88 0.86 0.86 0.86 0.86 0.84 0.84 0.82 0.82 0.80 0.78 0.76 0.74 0.72 0.72 0.68 0.64 0.62 0.62 0.60 0.60 0.58 0.58 0.58 0.58 0.58 0.56
0.90 0.88 0.88 0.88 0.88 0.88 0.90 0.90 0.90 0.90 0.90 0.90 0.90 0.90 0.91 0.91 0.91 0.91 0.91 0.93 0.93 0.91 0.91 0.91 0.91 0.90 0.90 0.90 0.88 0.88 0.86 0.84 0.84 0.84 0.84 0.84 0.84 0.82 0.82 0.82 0.84 0.86 0.86 0.84 0.84 0.84 0.82 0.82 0.82 0.80 0.78 0.76 0.74 0.72 0.70 0.68 0.64 0.62 0.58 0.58 0.56 0.56 0.56 0.56 0.56 0.56 0.56 0.56 0.54
0.90 0.88 0.88 0.88 0.88 0.90 0.90 0.90 0.90 0.88 0.88 0.88 0.88 0.90 0.90 0.90 0.90 0.90 0.91 0.91 0.91 0.90 0.90 0.90 0.90 0.88 0.88 0.86 0.86 0.86 0.84 0.84 0.82 0.82 0.82 0.82 0.82 0.80 0.80 0.80 0.82 0.82 0.82 0.82 0.80 0.80 0.80 0.80 0.78 0.76 0.74 0.72 0.70 0.66 0.64 0.62 0.56 0.54 0.54 0.54 0.52 0.54 0.54 0.54 0.54 0.54 0.54 0.54 0.54
0.88 0.88 0.88 0.88 0.88 0.90 0.90 0.90 0.88 0.88 0.88 0.88 0.88 0.88 0.88 0.88 0.90 0.90 0.90 0.90 0.88 0.88 0.86 0.86 0.84 0.84 0.84 0.84 0.82 0.82 0.82 0.82 0.80 0.80 0.80 0.80 0.80 0.78 0.78 0.78 0.80 0.78 0.78 0.78 0.78 0.78 0.76 0.74 0.74 0.72 0.70 0.66 0.64 0.62 0.58 0.56 0.52 0.52 0.50 0.50 0.50 0.52 0.52 0.52 0.52 0.52 0.52 0.52 0.54
0.88 0.88 0.88 0.88 0.86 0.88 0.88 0.88 0.88 0.86 0.86 0.88 0.88 0.88 0.88 0.88 0.88 0.88 0.90 0.90 0.88 0.86 0.84 0.82 0.80 0.80 0.80 0.80 0.80 0.80 0.80 0.80 0.80 0.78 0.78 0.78 0.78 0.78 0.76 0.74 0.74 0.74 0.76 0.76 0.74 0.72 0.72 0.70 0.68 0.66 0.64 0.60 0.58 0.56 0.54 0.50 0.50 0.48 0.48 0.48 0.48 0.50 0.50 0.52 0.52 0.52 0.52 0.52 0.52
0.86 0.86 0.86 0.86 0.84 0.84 0.86 0.86 0.86 0.86 0.86 0.86 0.86 0.86 0.86 0.86 0.86 0.86 0.86 0.88 0.86 0.84 0.82 0.80 0.78 0.78 0.78 0.78 0.76 0.76 0.76 0.76 0.76 0.76 0.76 0.76 0.76 0.76 0.74 0.72 0.72 0.72 0.72 0.70 0.68 0.68 0.66 0.64 0.62 0.60 0.58 0.56 0.54 0.54 0.52 0.50 0.48 0.48 0.48 0.48 0.48 0.48 0.50 0.50 0.50 0.50 0.52 0.52 0.52
0.84 0.84 0.84 0.84 0.84 0.82 0.82 0.82 0.84 0.84 0.84 0.84 0.84 0.82 0.82 0.82 0.82 0.84 0.84 0.84 0.84 0.82 0.80 0.78 0.76 0.76 0.76 0.76 0.74 0.74 0.72 0.74 0.74 0.74 0.74 0.74 0.74 0.74 0.72 0.70 0.68 0.66 0.66 0.64 0.64 0.62 0.60 0.58 0.58 0.56 0.56 0.54 0.52 0.52 0.50 0.48 0.46 0.46 0.46 0.46 0.46 0.48 0.48 0.50 0.50 0.50 0.50 0.50 0.52
0.84 0.82 0.82 0.82 0.82 0.82 0.82 0.80 0.82 0.82 0.82 0.82 0.82 0.82 0.82 0.82 0.82 0.80 0.80 0.80 0.80 0.78 0.78 0.76 0.76 0.74 0.74 0.74 0.72 0.72 0.72 0.72 0.72 0.74 0.74 0.74 0.72 0.70 0.68 0.66 0.64 0.62 0.60 0.60 0.58 0.58 0.56 0.56 0.54 0.54 0.52 0.52 0.50 0.50 0.48 0.48 0.46 0.44 0.44 0.44 0.46 0.46 0.48 0.48 0.50 0.50 0.50 0.50 0.52
Wind_Speed
34 35 34 33 32 30 28 26 25 25 25 25 25 25 24 23 22 20 19 18 18 17 17 17 17 17 17 17 17 17 17 17 17 17 18 18 18 18 18 19 19 19 19 19 19 19 19 19 19 19 19 19 19 19 19 19 19 19 20 20 20 20 21 21 21 22 22 22 23
34 34 33 32 31 29 27 26 25 25 25 25 25 24 23 22 20 19 18 18 17 16 16 16 16 16 16 16 16 16 17 17 17 17 17 17 18 18 18 18 18 18 19 19 19 19 19 19 19 19 19 19 19 19 19 19 19 19 20 20 20 20 21 21 22 22 22 23 24
33 33 32 31 30 28 26 25 25 25 25 24 24 23 22 21 20 18 18 17 16 16 16 15 15 15 15 15 16 16 16 16 16 16 16 17 17 17 17 17 17 18 18 18 18 19 19 19 19 19 19 19 19 20 20 19 19 20 20 20 20 20 21 22 22 22 23 23 24
33 32 31 29 28 27 26 25 25 25 24 23 23 22 21 20 19 17 17 16 15 15 15 15 15 15 15 15 15 15 15 16 16 16 16 16 16 16 16 17 17 17 17 18 18 18 18 18 19 19 19 19 19 20 20 19 19 20 20 20 20 21 21 22 22 23 23 24 24
32 31 29 28 27 26 26 25 25 24 23 23 22 21 20 19 18 17 16 15 15 15 14 14 14 14 14 14 15 15 15 15 15 15 15 15 15 16 16 16 16 16 17 17 17 18 18 18 18 19 19 19 19 19 19 19 19 20 20 20 21 21 22 22 22 23 23 24 24
31 30 28 26 26 26 25 24 24 23 23 22 21 20 19 18 17 16 16 15 15 14 14 14 14 14 14 14 14 14 14 15 15 15 15 15 15 15 15 15 15 16 16 16 16 17 17 18 18 18 18 19 19 19 19 19 19 20 20 20 21 21 21 22 22 23 23 24 24
30 29 27 26 26 26 25 24 23 23 22 21 21 20 19 18 17 16 15 15 14 14 14 14 14 14 13 14 14 14 14 14 14 14 14 14 14 14 14 14 14 15 15 15 16 16 16 17 17 17 18 18 18 18 18 18 19 19 20 20 20 20 21 21 22 22 23 23 23
29 27 26 25 25 25 24 23 23 22 22 21 20 19 18 17 16 16 15 14 14 13 13 13 13 13 13 13 13 13 13 13 13 13 13 13 13 13 13 13 14 14 14 14 15 15 15 16 16 16 17 17 17 17 17 18 18 19 19 20 20 20 21 21 21 22 22 22 22
27 26 25 24 24 24 23 23 22 22 21 20 19 18 17 17 16 15 15 14 13 13 13 12 12 12 12 12 12 12 12 12 12 12 12 12 12 12 12 13 13 13 13 13 14 14 15 15 15 16 16 16 16 17 17 17 18 18 19 19 19 20 20 20 21 21 21 21 22
27 26 24 24 23 23 23 22 22 21 20 19 18 17 17 16 15 15 14 13 13 12 12 12 11 11 11 11 11 11 11 11 11 11 11 12 12 12 12 12 12 12 13 13 13 13 14 14 15 15 15 15 16 16 16 17 17 18 18 19 19 19 19 20 20 20 20 21 21
27 26 24 23 23 23 22 21 20 20 19 18 17 17 16 16 15 14 14 13 12 12 12 11 11 11 11 11 11 11 11 11 11 11 11 11 11 11 11 12 12 12 12 12 12 13 13 14 14 15 15 15 15 16 16 16 17 17 18 18 18 19 19 19 19 19 20 20 21
28 26 24 24 23 22 21 20 19 19 18 17 17 16 16 15 15 14 13 13 12 12 11 11 11 11 11 11 11 11 11 11 11 11 11 11 11 11 11 11 11 12 12 12 12 12 13 13 14 14 14 14 15 15 15 16 16 17 17 17 18 18 18 19 19 19 20 20 21
28 26 24 23 23 22 21 20 19 18 17 17 16 16 15 15 15 14 14 13 12 12 11 11 11 11 11 11 11 11 11 10 10 10 10 10 10 10 11 11 11 11 11 12 12 12 12 13 13 13 14 14 14 15 15 15 16 16 17 17 17 18 18 19 19 20 20 21 22
27 26 24 23 22 21 20 19 18 18 17 17 16 16 15 15 14 14 14 13 13 12 12 11 11 11 11 11 11 11 11 10 10 10 10 10 10 10 10 10 11 11 11 11 11 12 12 12 13 13 13 14 14 14 14 15 15 16 16 16 17 18 18 19 20 21 21 22 23
26 25 24 23 22 21 20 19 18 17 17 16 16 15 15 14 14 14 13 13 13 12 12 12 12 11 11 11 11 11 10 10 10 10 10 10 10 10 10 10 10 11 11 11 11 11 12 12 12 13 13 13 13 14 14 14 15 15 16 17 17 18 19 20 21 21 22 23 23
25 24 23 22 21 20 19 18 18 17 16 16 15 15 14 14 14 13 13 13 13 12 12 12 12 11 11 11 11 10 10 10 10 10 10 10 10 10 10 10 10 10 11 11 11 11 11 12 12 12 13 13 13 14 14 14 15 16 17 17 18 19 20 21 21 22 23 23 24
24 23 22 21 20 19 19 18 17 16 16 15 15 14 14 14 13 13 13 13 12 12 12 12 12 11 11 11 10 10 10 10 10 10 9 10 10 10 10 10 10 10 10 10 11 11 11 11 12 12 12 13 13 14 14 15 16 17 17 18 19 20 21 21 22 22 23 23 23
22 21 20 19 19 18 18 17 16 16 15 15 14 14 14 13 13 13 13 12 12 12 12 12 11 11 10 10 10 10 9 9 9 9 9 9 9 9 9 10 10 10 10 10 10 11 11 11 12 12 13 13 14 14 15 16 17 17 18 19 20 21 21 22 22 22 22 22 22
20 19 19 18 17 17 16 16 15 15 14 14 14 13 13 13 13 13 12 12 12 12 11 11 11 10 10 10 10 9 9 9 9 9 9 9 9 9 9 9 9 9 10 10 10 11 11 11 12 12 13 14 14 15 16 17 18 18 19 20 20 21 21 21 21 21 21 21 21
19 18 18 17 16 16 15 15 14 14 14 14 13 13 13 13 13 13 12 12 12 12 11 11 10 10 10 9 9 9 9 9 9 9 9 8 8 9 9 9 9 9 9 9 10 11 11 12 12 13 13 14 15 16 17 17 18 19 19 19 20 20 20 20 20 20 20 20 21
18 17 17 16 16 15 15 14 14 14 13 13 13 13 13 12 12 12 12 12 12 11 11 10 10 10 9 9 9 9 9 9 8 8 8 8 8 8 8 8 8 9 9 9 10 11 11 12 12 13 14 15 16 16 17 17 18 18 18 18 18 18 18 18 18 19 19 20 20
16 16 16 15 15 14 14 14 13 13 13 13 13 13 12 12 12 12 12 11 11 11 10 10 9 9 9 9 8 8 8 8 8 8 8 8 8 8 8 8 8 9 9 9 10 10 11 11 12 13 14 15 15 16 16 16 16 16 16 16 16 17 17 17 17 18 18 19 20
15 15 14 14 14 14 13 13 13 13 13 12 12 12 12 11 11 11 11 10 10 10 9 9 9 8 8 8 8 8 7 7 7 7 7 8 8 8 8 8 8 8 8 9 10 10 11 11 12 13 13 14 14 15 15 15 15 15 15 15 15 16 16 17 17 18 19 20 20
14 14 14 14 13 13 13 13 12 12 12 12 11 11 11 11 11 10 10 10 9 9 9 8 8 8 7 7 7 7 7 7 7 7 7 7 7 7 7 7 7 8 8 9 9 10 11 12 12 13 13 14 14 14 14 14 14 14 14 15 15 16 16 17 18 19 20 20 20
13 13 13 13 13 12 12 12 12 12 11 11 11 11 10 10 10 10 10 9 9 9 8 8 8 8 7 7 7 7 7 7 7 7 7 7 7 7 7 7 8 8 8 9 10 10 11 12 12 13 13 13 13 14 14 14 14 14 15 15 16 16 17 18 19 19 20 20 20
13 13 12 12 12 12 12 11 11 11 11 11 10 10 10 10 10 10 9 9 9 8 8 8 8 8 8 7 7 7 7 7 7 7 7 7 7 7 7 8 8 9 9 10 10 11 11 12 12 13 13 13 13 13 13 14 14 14 15 16 16 17 18 18 19 19 19 18 18
12 12 12 12 12 11 11 11 11 11 10 10 10 10 10 10 9 9 9 9 8 8 8 8 8 8 8 8 7 7 7 7 7 7 7 7 7 7 8 8 9 9 10 10 11 11 11 12 12 12 12 12 13 13 13 14 14 15 16 16 17 18 18 18 18 18 17 16 15
12 12 12 12 11 11 11 11 10 10 10 10 9 9 9 9 9 8 8 8 8 8 8 7 7 8 8 7 7 7 7 7 7 7 7 7 8 8 8 9 9 10 10 10 11 11 11 11 12 12 12 12 13 13 14 14 15 16 16 17 17 17 17 17 16 15 14 13 13
12 12 12 11 11 11 11 10 10 10 10 9 9 9 9 9 8 8 8 8 7 7 7 8 8 7 7 7 7 7 7 7 7 8 8 8 8 8 9 9 10 10 10 10 11 11 11 11 11 12 12 12 13 14 14 15 15 16 16 16 16 16 15 14 13 13 12 12 12
12 11 11 11 11 10 10 10 10 10 9 9 9 9 9 8 8 8 8 7 7 7 8 8 7 7 7 7 7 7 7 7 8 8 8 8 8 8 9 9 10 10 10 11 11 11 11 11 11 12 12 12 13 14 14 14 15 15 15 15 14 13 13 12 11 11 11 12 12
11 10 10 10 10 10 9 9 9 9 9 9 9 8 8 8 8 8 8 7 8 8 8 7 7 7 7 7 7 7 7 7 7 7 7 7 7 8 8 9 9 10 10 11 11 11 11 11 11 11 12 12 13 13 13 14 14 14 13 13 12 11 11 10 10 11 11 12 13
9 9 9 9 9 9 9 8 8 8 8 8 8 8 8 7 7 7 7 8 7 7 7 7 7 7 7 7 6 6 6 6 6 7 7 7 7 8 8 9 9 10 10 10 10 10 10 10 10 11 11 12 12 13 13 13 13 12 12 11 10 10 10 10 10 11 12 13 14
9 9 9 8 8 8 8 8 8 7 7 7 7 7 7 7 7 7 7 7 7 7 7 7 6 6 6 6 6 6 6 6 6 7 7 7 8 8 8 9 9 9 9 9 9 9 9 10 10 11 11 12 12 12 12 12 11 11 10 9 9 9 9 10 10 11 12 13 14
9 9 8 8 8 8 8 8 7 7 7 7 7 7 7 7 7 7 7 7 7 7 6 6 6 6 6 6 6 6 6 6 6 7 7 8 8 8 8 8 8 8 9 9 9 9 9 10 10 11 11 11 12 11 11 10 9 8 8 7 8 9 9 10 11 12 13 14 14
8 8 8 8 7 7 7 7 7 7 7 7 7 7 7 7 7 7 7 7 7 7 6 6 6 6 6 6 6 6 6 6 7 7 7 8 8 8 8 8 8 8 8 9 9 9 9 10 10 10 11 11 10 10 9 8 7 7 6 7 8 9 10 11 12 12 13 14 15
7 7 7 7 7 7 6 6 6 7 7 7 7 7 7 7 7 7 7 7 7 7 7 7 6 6 6 6 6 6 6 7 7 7 7 8 8 8 7 8 8 8 8 9 9 9 9 10 10 10 10 9 9 8 7 6 6 6 6 7 8 9 10 11 12 13 14 14 15
6 6 7 7 7 7 6 6 6 6 6 6 6 7 7 7 7 7 7 7 7 7 7 7 6 6 6 6 6 7 7 7 7 7 7 8 8 7 7 7 8 8 8 9 9 9 9 9 9 9 8 8 7 6 5 5 5 6 7 8 9 10 11 12 12 13 14 15 16
5 6 6 6 6 7 6 6 6 6 6 6 7 7 7 7 7 7 7 7 7 7 6 6 6 6 6 6 7 7 7 7 7 7 7 7 7 7 7 7 7 8 8 8 8 9 8 8 8 7 6 6 5 5 5 5 6 7 8 9 10 10 11 12 13 14 15 16 17
5 5 6 6 6 6 6 7 7 7 7 7 7 7 7 7 7 7 7 7 7 7 6 6 6 6 6 7 7 7 7 7 7 7 6 6 6 6 6 6 7 7 8 8 8 8 7 7 6 5 5 4 4 4 5 6 6 7 8 9 10 11 12 13 14 14 15 17 18
5 5 6 6 6 6 6 7 7 7 7 7 7 7 7 7 7 7 7 7 7 7 7 7 6 6 6 6 6 6 6 6 6 6 6 6 6 6 6 6 6 7 7 7 7 7 6 5 4 4 3 3 4 5 5 6 7 8 9 10 11 11 12 13 14 15 16 17 18
6 6 6 6 6 6 7 7 7 7 7 7 7 7 7 7 7 8 8 8 7 7 7 7 7 7 6 6 6 6 5 5 5 5 5 5 5 6 6 6 6 7 7 7 6 5 5 4 3 3 3 3 4 5 6 7 8 9 9 10 11 12 13 14 15 16 17 18 19
Wind_Direction
189 187 187 188 190 191 190 187 185 184 187 191 195 196 196 196 197 200 203 206 209 212 213 215 215 216 216 216 217 218 219 220 220 221 222 224 225 226 228 229 230 231 232 233 234 235 236 237 239 241 242 243 244 246 247 248 249 251 253 255 257 260 262 264 266 268 270 272 274
187 186 186 188 190 191 188 185 183 185 188 191 193 194 194 194 196 200 203 206 209 211 213 214 215 215 216 216 217 218 219 220 221 222 223 224 225 227 228 229 231 232 233 234 235 236 237 238 240 241 243 244 245 246 247 248 249 252 254 256 258 261 263 265 267 269 271 274 276
186 185 186 188 189 188 186 184 184 186 188 190 191 192 192 194 196 199 203 205 208 210 211 212 213 214 215 216 217 218 220 220 221 222 223 224 226 227 228 230 231 232 233 234 235 237 238 239 240 241 243 244 245 246 248 249 250 253 255 257 260 262 264 267 269 271 273 276 278
187 186 186 187 186 185 184 184 185 186 188 189 190 190 191 193 196 199 202 204 206 208 209 211 212 213 214 216 217 218 220 220 221 222 224 225 226 227 229 230 231 232 233 234 235 236 238 239 240 241 242 243 245 246 248 250 251 254 256 259 261 263 266 268 271 273 276 278 280
187 186 185 184 184 184 184 185 185 186 187 187 188 189 191 193 195 198 201 203 204 206 207 209 211 213 214 215 216 218 219 220 221 223 224 226 227 228 229 230 231 232 233 234 235 236 237 238 240 241 242 243 245 246 248 250 252 255 258 260 263 265 268 271 273 276 278 280 282
184 182 181 182 183 184 184 184 184 185 185 186 187 188 190 192 195 197 199 201 203 204 206 208 210 212 214 215 216 217 218 220 221 223 225 226 227 228 229 230 231 233 234 235 236 236 237 238 239 240 242 243 245 247 249 251 254 257 260 263 266 268 271 273 276 278 280 281 283
179 176 177 180 183 184 184 183 183 183 184 184 186 187 189 191 193 196 198 200 201 203 205 207 209 211 212 214 215 216 218 219 221 223 224 226 227 228 230 231 232 234 235 236 236 237 238 238 240 241 242 244 247 249 251 254 257 260 263 266 269 271 273 275 278 280 281 282 284
174 174 176 180 182 183 182 181 181 181 182 183 185 187 189 191 193 195 197 199 201 203 205 206 208 210 211 213 214 215 217 218 220 222 224 226 227 229 230 232 233 234 236 236 237 237 238 238 240 241 243 246 249 251 254 256 259 262 265 268 271 273 275 277 279 281 282 284 286
175 176 178 180 181 181 180 179 179 180 181 182 184 186 189 191 192 194 196 199 201 202 204 206 207 209 210 212 213 215 216 218 219 221 223 225 227 229 231 233 234 235 236 236 236 236 237 238 240 242 244 247 250 253 256 258 261 263 266 269 272 275 277 278 280 282 284 286 287
180 180 179 180 181 180 179 178 178 179 180 181 184 186 188 190 192 194 196 198 200 202 204 205 206 208 210 211 213 214 215 217 219 220 223 225 227 229 230 232 233 234 234 234 234 235 235 237 240 242 245 248 252 255 258 260 262 265 268 271 273 276 278 280 282 284 286 288 289
183 182 180 180 180 179 179 178 178 178 179 181 183 185 188 190 191 193 195 197 198 201 203 204 205 207 209 211 213 214 215 217 219 220 222 225 227 228 230 231 232 232 232 233 233 234 235 238 240 243 247 250 253 256 259 262 264 266 269 273 275 277 280 282 285 287 288 289 290
183 182 180 179 179 178 178 177 177 177 179 180 182 185 187 189 191 192 194 196 198 200 202 204 205 208 210 212 214 215 217 218 220 222 224 226 227 228 230 230 231 232 232 232 233 234 236 239 242 245 248 252 255 259 261 264 267 269 272 275 278 280 282 285 287 288 289 290 290
182 180 178 178 177 177 177 176 176 176 178 180 182 184 186 188 190 192 194 196 198 201 203 205 207 209 211 213 215 217 219 221 223 225 227 229 230 231 231 231 232 232 233 234 235 236 238 241 244 248 251 255 258 261 264 267 269 272 275 277 280 282 284 286 288 289 290 290 290
179 177 176 176 176 175 175 174 174 175 177 179 182 184 186 188 190 192 194 197 199 201 203 206 209 211 213 215 217 219 221 224 226 228 230 232 233 233 233 234 234 235 235 236 238 239 242 244 247 251 254 257 261 264 267 269 272 274 277 279 281 283 285 287 289 289 290 290 291
175 174 173 173 173 173 173 173 174 175 177 179 182 184 186 189 191 193 195 197 199 201 204 206 210 213 215 217 219 221 223 226 228 230 231 233 234 235 236 237 237 238 239 240 241 243 245 247 250 253 256 260 263 266 269 272 274 277 279 281 283 285 286 288 289 290 290 291 292
170 170 170 170 170 170 171 172 173 175 177 180 182 185 187 190 192 194 196 197 199 202 204 207 210 213 216 219 221 223 225 227 229 231 232 234 235 236 237 238 239 240 241 242 244 246 248 250 253 255 258 262 265 268 271 274 277 279 281 283 285 286 287 288 289 290 291 292 293
165 165 166 166 167 168 170 171 173 175 177 180 183 186 188 191 193 195 197 198 200 202 205 208 210 213 216 219 222 224 226 228 230 232 233 234 235 236 237 238 239 240 241 243 245 247 249 252 255 258 261 265 268 272 275 278 280 282 283 284 285 286 287 288 290 291 293 294 295
162 162 163 165 166 167 169 171 173 176 178 181 184 187 190 193 195 197 199 200 202 204 206 209 212 214 217 219 223 225 227 229 231 232 234 235 236 236 237 238 239 240 242 244 246 248 251 254 258 261 265 268 272 275 278 280 282 283 284 285 285 286 288 289 291 293 294 295 296
160 162 163 165 167 169 171 173 175 178 181 184 187 191 193 196 198 200 202 203 205 206 208 210 213 216 219 221 224 226 229 231 232 234 235 236 237 238 239 240 241 243 244 246 248 251 254 257 261 264 268 272 275 278 280 281 283 284 284 285 287 288 290 292 293 294 296 297 299
162 164 165 167 169 172 174 176 179 182 184 188 191 193 196 199 201 202 204 206 208 209 210 212 215 219 221 224 225 228 231 233 234 235 237 238 239 240 241 242 244 246 248 250 253 256 259 262 265 269 272 275 277 279 281 282 283 284 286 287 289 291 293 295 296 297 298 300 301
164 165 167 169 172 174 177 180 182 185 188 190 193 195 198 201 203 205 206 208 209 211 212 215 218 220 223 225 227 229 231 233 235 236 238 239 240 241 242 243 245 247 250 253 257 260 264 267 271 273 276 278 279 281 282 284 285 287 289 291 293 295 297 298 299 300 301 302 303
165 167 169 171 174 177 180 182 185 187 190 192 195 197 199 201 204 206 207 208 209 211 213 216 219 221 223 225 226 228 231 233 235 236 237 238 238 239 241 242 244 248 252 257 261 265 268 271 274 276 278 279 281 283 284 286 289 291 293 295 297 298 299 300 301 301 302 303 304
165 168 171 174 177 179 182 184 186 189 191 193 195 197 199 201 203 204 205 206 208 210 213 216 218 220 221 223 224 226 227 229 231 232 232 233 234 236 238 241 245 250 255 260 265 268 271 273 275 277 279 280 282 285 287 289 291 293 295 297 298 299 300 300 300 301 302 303 303
167 171 174 177 180 182 184 186 188 190 191 193 195 196 198 199 200 201 202 204 205 208 210 213 215 216 217 218 219 220 221 222 223 224 225 227 228 231 236 241 246 252 258 263 268 271 272 274 276 278 280 283 285 287 289 291 292 294 295 296 297 298 299 300 300 301 302 303 303
169 173 176 180 182 184 186 187 188 189 191 193 194 195 196 197 198 198 200 201 203 205 207 210 212 213 214 214 215 216 216 216 216 217 219 222 227 232 238 244 251 257 262 267 271 274 276 277 278 280 282 285 286 288 290 292 293 294 295 296 297 298 299 300 301 302 302 303 303
170 173 177 180 183 185 187 188 189 190 191 192 193 193 194 195 196 197 198 199 202 204 207 208 210 212 212 212 213 213 214 214 215 216 219 224 231 238 245 251 257 261 266 270 274 277 279 281 282 283 284 286 288 289 291 292 293 294 295 296 297 298 299 300 301 302 302 303 304
170 173 176 179 182 183 185 187 188 189 190 191 191 192 193 195 195 196 198 199 202 205 207 209 211 212 212 213 212 212 214 216 218 221 226 232 239 246 252 257 261 265 269 274 278 280 282 284 286 287 287 288 289 290 291 292 293 294 295 296 297 298 299 300 301 302 304 306 308
169 172 175 177 179 182 184 186 186 187 188 189 190 192 193 195 196 197 199 201 204 206 208 210 212 213 214 214 214 215 217 221 225 231 236 242 247 253 257 261 265 269 273 278 281 284 286 288 289 290 290 290 290 290 291 291 292 294 295 297 299 300 301 302 304 305 308 310 313
169 171 173 175 177 179 181 183 183 185 187 188 190 192 193 194 195 197 199 201 203 205 207 210 212 214 214 214 216 219 223 228 234 239 243 248 252 257 262 266 270 274 279 283 285 287 289 290 291 291 291 291 290 290 291 292 294 296 297 299 301 303 304 305 307 309 312 314 317
168 170 172 173 175 176 178 179 181 183 185 187 189 190 192 193 195 196 198 200 202 205 207 210 211 212 214 216 220 224 228 233 239 243 247 251 256 262 267 272 275 279 283 286 288 289 290 290 291 291 291 291 291 292 293 295 297 299 301 302 303 305 306 308 310 313 315 317 319
167 168 170 171 172 173 174 176 178 181 183 185 187 188 190 192 193 195 198 199 201 203 206 207 208 210 214 219 222 226 230 235 240 245 250 255 260 266 271 276 279 282 285 287 288 288 289 289 290 290 291 292 293 294 296 298 300 302 303 304 305 307 308 310 313 316 318 319 319
161 163 165 166 166 167 168 170 173 176 178 180 182 184 185 186 188 191 194 196 198 199 201 203 204 207 212 217 221 225 230 236 243 249 255 260 265 270 275 278 282 284 286 287 287 287 287 288 289 291 292 294 295 297 299 301 302 304 305 307 309 311 313 315 317 319 320 320 320
153 155 157 159 159 159 160 163 165 168 170 171 173 174 176 177 180 184 187 190 193 194 196 199 201 205 210 215 220 226 233 241 248 255 261 266 270 273 276 279 281 283 284 285 285 285 286 288 290 292 295 297 298 300 301 302 304 305 307 311 314 318 320 321 321 321 321 321 321
145 147 149 151 153 155 157 159 161 163 164 164 166 168 171 173 174 176 180 185 189 192 196 200 203 208 214 220 225 231 239 247 254 260 265 268 270 272 274 276 277 279 281 282 283 284 286 289 292 295 298 300 300 301 303 304 306 308 311 314 318 320 322 322 323 322 322 322 322
141 142 144 146 149 153 156 159 162 163 164 166 167 170 172 174 175 177 181 187 192 196 200 205 210 215 220 226 231 236 242 248 254 259 263 265 266 268 270 272 274 277 280 282 284 287 290 293 296 298 299 300 300 302 303 306 309 312 315 317 319 320 321 321 321 321 321 321 321
143 145 145 147 149 152 155 160 163 166 168 170 171 173 176 180 183 187 192 196 199 202 205 209 214 218 222 227 232 238 244 248 252 256 259 262 264 266 269 272 275 279 283 286 288 290 293 295 297 298 299 299 300 301 303 306 310 313 317 319 320 321 321 321 321 321 321 320 320
151 153 154 154 154 156 159 163 166 169 172 173 174 177 180 185 190 196 201 205 205 206 208 213 216 220 224 229 235 240 245 250 253 255 258 262 265 268 271 275 279 283 286 289 292 293 295 296 297 298 298 297 298 299 302 305 309 313 317 319 320 320 320 320 320 320 320 320 320
158 161 162 163 163 164 166 169 172 175 177 178 180 184 188 192 195 200 205 207 207 207 210 215 219 224 229 234 239 244 250 253 256 258 261 265 268 271 274 278 282 285 289 292 295 296 297 298 297 296 295 294 294 296 300 305 309 313 316 317 318 318 319 319 319 319 320 320 321
163 166 168 170 172 174 175 176 178 182 184 184 187 190 194 197 200 203 205 207 208 209 212 217 223 228 232 237 242 248 253 257 259 261 263 267 270 273 276 280 284 287 291 294 297 298 298 298 296 294 292 290 292 296 301 306 309 313 314 315 316 317 317 318 319 319 320 321 323
165 168 171 174 176 178 179 180 183 187 189 191 192 194 197 200 202 204 206 207 210 212 216 220 224 228 233 237 242 248 253 257 260 261 263 267 270 274 278 282 286 289 292 295 297 297 297 296 293 291 288 289 295 300 305 307 310 312 314 315 316 317 318 318 319 320 321 321 323
167 169 172 174 176 178 180 182 186 190 193 195 196 198 200 203 205 207 209 212 214 217 220 223 227 230 234 237 241 245 249 252 256 258 261 265 270 276 281 284 288 291 293 294 294 293 291 288 285 284 288 293 299 304 307 309 310 313 315 316 317 318 319 320 321 322 322 322 322